Terminal Aerodrome Forecast
Issued by NWS

Home | Current Version | Previous Version | Text Only | Print | Product List | Glossary On
Versions: 1 2 3 4 5 6 7 8 9 10 11 12
000
FTUS46 KSGX 182300
TAFONT
TAF
KONT 182330Z 1900/2006 25011KT P6SM SKC
     FM190400 VRB04KT P6SM SCT015
     FM190800 VRB04KT P6SM BKN015
     FM191700 VRB04KT P6SM SCT020
     FM192100 26011KT P6SM SKC
     FM200400 VRB04KT P6SM SCT020=

USA.gov is the U.S. government's official web portal to all federal, state and local government web resources and services.